Showing default

CROCUBE, 62394

Orbit data source: Space-Track

CROCUBE, 62394 is a Croatian payload satellite in LEO that was launched on Sat, 21 Dec 2024 UTC via an FALCON 9 launch vehicle from the Air Force Western Test Range (AFWTR). Payload-class satellites include a variety of spacecraft equipped with specific instruments for various scientific and technological missions. These include communications satellites like Starlink; space stations such as the ISS; scientific satellites like the Hubble; Earth observation satellites from companies like Planet Labs, Umbra, and HawkEye 360; GPS; miniature CubeSats for education and research; and military/defense satellites.

Loading next visibility...
Identifier
62394, 2024-247T
Orbit
LEO
Country
Flag of HRHR / HRV
Related business
Manufacturer
SpaceManic
Mission
Operational Amateur Technology
Bus & Motor
CUBESAT 1U, Unknown motor
Mass
1 kg wet, 1 kg dry
Launch date (UTC)
2024-12-21 (1 year ago)
Launch vehicle
FALCON 9
Launch site
Air Force Western Test Range (AFWTR)
Object type
Payload
Rocket body
Debris
Shape & HBR
Box, 0.1 m
Radar Cross Section
0.015 m², Small (<0.1 m²)

Expand to show TLE details & history
Last TLE update: 13 hours ago

TLE from 13 hours ago
0 CROCUBE
1 62394U 24247T   25345.06065254  .00037869  00000-0  10943-2 0  9992
2 62394  44.9747 229.1913 0003190 125.2174 234.9011 15.35069533 54316
Epoch: 2025-12-11T01:27Z
TLE epoch observation values (Epoch: 2025-12-11T01:27:20.379Z)
Latitude
0.00002°
Longitude
127.33436°
Altitude
461.964 km
Speed
7.637 km/s
True Right ascension
15h 16m 45s
True Declination
0° 00' 00"
Sunlit
Object was in daylight at epoch
Visualization orbit readout
Latitude
Unknown
Longitude
Unknown
Altitude
Unknown
Speed
Unknown
Apparent Right ascension
Unknown
Apparent Declination
Unknown
Sunlit
N/A
Visualization observer readout
Local Sidereal Time
13:09:57
Azimuth
Unknown
Elevation
Unknown
Doppler factor
Unknown
Orbital elements
Apogee altitude
464.515 km
Perigee altitude
460.151 km
Semi-major axis
6,840.47 km
Eccentricity
0.00032
Inclination
44.9747°
RAAN
229.1913°
Arg. of periapsis
125.2174°
True anomaly
234.8712°
Mean anomaly
234.9011°
Eccentric anomaly
234.88615°
Mean motion
3.83632 °/min
Orbital period
93.84 mins
BSTAR
0.0010943
Loading maneuver chart data...
Computing Atmospheric mass density...
Loading historical data...
Loading historical data...
Loading historical data...
Loading historical data...
Loading historical data...
Loading historical data...
Loading historical data...

Documentation

Showing up to 5 results
|